Terug naar catalogus

SUCHAI-4

ActiefMilitairSSO
NORAD 69911·PAYLOAD·🇺🇸 United States

Gelanceerd Jul 7, 2026 vanaf Vandenberg Space Force Base

Loading…

Volgende Passages (komende 24 uur)

TLE

VersSource: Space-Track

Epoch: Sep 13, 2026, 16:07 UTC

1 69911U 26156AU  26256.67203504  .00001191  00000-0  12657-3 0  9990
2 69911  97.7459 155.8779 0000557 276.8773  83.2382 14.90817204 10180

Volg SUCHAI-4 in realtime met AllMySat

Download on the App Store